Погода в Куженере

Россия / Республика Марий Эл     56°48′40″N   48°54′52″E
темп.,
°C
ветер,
м/с
пор.,
м/с
влажн.,
%
обл.,
%
осадки,
мм/ч
давл.,
гПа
погр.,
м
11 апреля, вс
вс1100:00+1ссв23100100 0.0 102675
03:00+1ссв23100100 0.1 102790
06:00+1ссв25100100 1.4 1028141
09:00+2ссз25100100 1.7 1029191
12:00+3ссз23100100 0.0 1031196
15:00+3с1289100 0.0 1032168
18:00+1с1190100 0.0 103410
21:000с1186100 0.0 103510
12 апреля, пн
пн1200:000ссв2288100 0.0 103620
03:00+1св2487100 0.0 103754
06:00+1всв3688100 0.0 1038109
09:00+4всв3888100 0.0 1038224
12:00+7в4682100 0.0 1038373
15:00+8в4783100 0.0 1037502
18:00+5вюв3891100 0.0 1036165
21:00+3вюв499183 0.0 1036151
13 апреля, вт
вт1300:00+2вюв389593 0.0 1035114
03:00+2юв349797 0.0 103555
06:00+3юв369874 0.0 103397
09:00+10ю478156 0.0 1032253
12:00+15ю466915 0.0 1031630
15:00+16ю566551 0.0 1030870
18:00+12ююв388069 0.0 1029157
21:00+8ю377830 0.0 102996
14 апреля, ср
ср1400:00+6ю38765 0.0 1028115
03:00+5ююз388047 0.0 1027112
06:00+6ююз38810 0.0 1027128
09:00+12ююз47595 0.0 1026323
12:00+17ююз564713 0.0 1025818
15:00+18ююз46436 0.0 10241054
18:00+14ююз376189 0.0 1022126
21:00+10ююз3872100 0.0 1022130
15 апреля, чт
чт1500:00+9ююз3876100 0.0 1021122
03:00+7ююз3578100 0.0 102081
06:00+7ююз367899 0.0 1019111
09:00+13юз465895 0.0 1017319
12:00+17юз564276 0.0 10161137
15:00+18юз5739100 0.0 10141866
18:00+14зюз3758100 0.0 1013142
21:00+8ссз3789100 0.0 1013270